Location: Marcé
(47.5801°N, 0.3280°W)
Time: 09:54:27
(UTC+01:00)

Vanguard 3 - Pass Details

Date: 15 December 2021
Orbit: 508 x 3260 km, 33.3° (Epoch: 24 January)

Event Time Altitude Azimuth Distance (km) Brightness Sun altitude
Rises 09:14:03 0° 275° (W) 7,228 11.5 3.3°
Reaches altitude 10° 09:24:05 10° 251° (WSW) 5,980 11.3 4.6°
Maximum altitude 09:29:25 12° 234° (SW) 5,557 11.3 5.3°
Drops below altitude 10° 09:34:21 10° 216° (SW) 5,408 11.5 5.9°
Sets 09:42:09 0° 189° (S) 5,758 12.1 6.8°
